SCP
0 0 0 0 0 0 0 0 0 0 0 0 0 0 0 0 0 0 0 0 0 0 0 0 0 0 0 0 0 0 0 0 0 0 0 0 0 0 0 0 0 0 0 0
0 0 0 0 0 0 0 0 0 0 0 0 0 0 0 0 0 0 0 0 0 0 0 0 0 0 0 0 0 0 0 0 0 0 0 0 0 0 0 0 0 0 0 0
0 0 0 0 0 0 0 0 0 0 0 0 0 0 0 0 0 0 0 0 0 0 0 0 0 0 0 0 0 0 0 0 0 0 0 0 0 0 0 0 0 0 0 0
0 0 0 0 0 0 0 0 0 0 0 0 0 0 0 0 0 0 0 0 0 0 0 0 0 0 0 0 0 0 0 0 0 0 0 0 0 0 0 0 0 0 0 0
0 0 0 0 0 0 0 0 0 0 0 0 0 0 0 -0 0 0 0 0 0 0 0 0 0 0 0 0 0 0 0 0 0 0 0 0 0 0 0 0 0 0 0 0
0 0 0 0 0 0 0 0 0 0 0 0 0 0 0 0 0 0 0 0 0 0 0 0 0 0 0 0 0 0 0 0 0 0 0 0 0 0 0 0 0 0 0 0
0 0 0 0 0 0 0 0 0 0 0 0 0 0 0 0 0 0 0 0 0 0 0 0 0 0 0 0 0 0 0 0 0 0 0 0 0 0 0 0 0 0 0 0
0 0 0 0 0 0 0 0 0 0 0 0 0 0 0 0 0 0 0 0 0 0 0 0 0 0 0 0 0 0 0 0 0 0 0 0 0 0 0 0 0 0 0 0
0 0 0 0 0 0 0 0 0 0 0 0 0 0 0 0 0 0 0 0 0 0 0 0 0 0 0 0 0 0 0 0 0 0 0 0 0 0 0 0 0 0 0 0
0 0 0 0 0 0 0 0 0 0 0 0 0 0 0 0 0 0 0 0 0 0 0 0 0 0 0 0 0 0 0 0 0 0 0 0 0 0 0 0 0 0 0 0
0 0 0 0 0 0 0 0 0 0 0 0 0 0 -0 0 0 0 0 0 0 0 0 0 0 0 0 0 0 0 0 0 0 0 0 0 0 0 0 0 0 0 0 0
0 0 0 0 0 0 0 0 0 0 0 0 0 0 0 0 0 0 0 0 0 0 0 0 0 0 0 0 0 0 0 0 0 0 0 0 0 0 0 0 0 0 0 0
0 0 0 0 0 0 0 0 0 0 0 0 0 0 0 0 0 0 0 0 0 0 0 0 0 0 0 0 0 0 0 0 0 0 0 0 0 0 0 0 0 0 0 0
0 0 0 0 0 0 0 0 0 0 0 0 0 0 0 0 0 0 0 0 0 0 0 0 0 0 0 0 0 0 0 0 0 0 0 0 0 0 0 0 0 0 0 0
0 0 0 0 0 0 0 0 0 0 0 0 0 0 0 0 0 0 0 0 0 0 0 0 0 0 0 0 0 0 0 0 0 0 0 0 0 0 0 0 0 0 0 0
0 0 0 0 0 0 0 0 0 0 0 0 -0 0 -0 -0 -0 0 0 0 0 0 0 0 0 0 0 0 0 0 0 0 0 0 0 0 0 0 0 0 0 0 0 0
0 0 0 0 0 0 0 0 0 0 0 0 0 -0 0 0 0 0 0 0 0 0 0 0 0 0 0 0 0 0 0 0 0 0 0 0 0 0 0 0 0 0 0 0
0 0 0 0 0 0 0 0 0 0 0 -0 -0 -0 -0 -0 0 0 0 0 0 0 0 0 0 0 0 0 0 0 0 0 0 0 0 0 0 0 0 0 0 0 0 0
0 0 0 0 0 0 0 0 -0 0 0 0 0 0 0 0 0 0 0 0 0 0 0 0 0 0 0 0 0 0 0 0 0 0 0 0 0 0 0 0 0 0 0 0
0 0 0 0 0 0 0 0 0 0 0 0 0 0 0 0 -0 -0 0 0 0 0 0 0 0 0 0 0 0 0 0 0 0 0 0 0 0 0 0 0 0 0 0 0
0 0 0 0 0 0 0 0 0 0 0 0 0 0 0 0 0 -0 -0 0 0 0 0 0 0 0 0 0 0 0 0 0 0 0 0 0 0 0 0 0 0 0 0 0
0 0 0 0 0 0 0 0 0 0 0 0 0 0 0 0 0 0 0 0 0 0 0 0 0 0 0 0 0 0 0 0 0 0 0 0 0 0 0 0 0 0 0 0
0 0 0 0 0 0 0 0 0 0 0 0 0 0 0 0 0 0 0 0 0 0 0 0 0 0 0 0 0 0 0 0 0 0 0 0 0 0 0 0 0 0 0 0
0 0 0 0 0 0 0 0 0 0 0 0 0 0 0 0 0 0 0 0 0 0 0 0 0 0 0 0 0 0 0 0 0 0 0 0 0 0 0 0 0 0 0 0
0 0 0 0 0 0 0 0 0 0 0 0 0 0 0 0 0 0 0 0 0 0 0 0 0 0 0 0 0 0 0 0 0 0 0 0 0 0 0 0 0 0 0 0
0 0 0 0 0 0 0 0 0 0 0 0 0 0 0 0 0 0 0 0 0 0 0 0 0 0 0 0 0 0 0 0 0 0 0 0 0 0 0 0 0 0 -0 0
Wind_Speed_500mb
11 6 16 15 17 4 10 7 9 6 8 11 15 20 22 34 36 45 49 44 44 46 59 54 54 67 66 63 60 57 55 55 53 54 52 52 53 53 53 54 52 49 47 49
6 17 9 11 9 12 5 3 7 10 3 8 6 21 19 14 21 49 59 56 56 53 44 47 61 61 77 75 70 65 62 55 56 58 56 57 55 55 55 54 54 53 51 46
14 2 29 19 11 15 12 10 7 6 8 8 9 15 18 15 38 60 72 76 71 70 70 62 62 59 66 84 81 72 65 60 59 61 61 63 64 64 61 60 58 55 53 50
14 26 6 7 9 13 13 16 14 10 5 9 2 11 12 9 14 12 44 59 75 81 81 75 72 62 53 67 81 73 68 61 61 63 66 67 71 72 68 63 59 54 52 52
15 16 27 30 13 15 10 12 14 8 5 2 5 6 14 7 9 20 21 49 54 62 65 75 73 69 57 44 56 60 57 57 58 63 67 66 65 67 67 63 60 56 54 53
14 6 13 11 22 22 8 8 11 8 5 8 15 14 10 10 16 15 22 21 34 34 49 52 55 65 66 58 54 46 49 58 60 57 57 61 63 58 56 54 57 58 57 56
12 19 5 6 13 12 11 18 4 5 4 12 4 10 19 10 15 12 17 25 33 21 16 22 28 37 48 54 54 52 49 44 47 56 60 59 59 59 61 58 58 56 56 57
16 11 28 12 12 14 29 20 11 15 10 8 8 14 11 22 31 32 49 53 39 25 22 21 16 20 27 28 28 32 33 34 41 47 51 53 55 56 55 58 61 61 60 61
12 11 3 7 9 17 12 24 9 6 3 5 9 12 18 11 9 6 9 8 18 18 21 16 13 17 18 20 25 29 32 30 30 34 37 41 42 45 49 52 56 60 62 61
5 3 7 20 8 13 15 18 9 3 4 7 8 8 9 7 12 14 13 19 20 16 21 18 15 14 18 23 24 22 21 22 23 27 30 33 37 41 44 46 47 48 50 50
3 3 1 14 14 31 7 11 8 7 10 9 1 9 14 14 13 15 22 43 33 18 18 15 17 18 14 15 16 17 19 20 21 23 25 27 28 30 32 34 37 39 42 42
15 8 10 13 2 3 33 13 18 11 8 5 3 11 9 19 16 23 32 56 63 22 11 13 19 13 12 11 9 8 9 12 15 20 22 23 24 25 25 28 29 31 33 34
11 6 7 1 15 8 7 8 12 8 2 18 9 10 15 19 19 31 36 51 49 42 21 5 9 9 7 4 3 7 9 11 13 15 17 19 21 22 24 25 26 27 29 31
8 5 10 8 5 4 6 8 4 6 12 27 27 22 7 25 20 30 28 27 28 33 25 22 15 10 5 5 7 7 9 12 14 16 17 19 21 21 23 25 27 28 30 32
8 4 4 7 12 10 4 4 2 6 4 4 8 14 21 19 15 24 25 7 14 18 21 20 15 15 16 13 10 5 7 10 14 17 19 19 20 22 24 26 29 30 31 33
3 4 5 3 9 11 1 11 10 9 9 16 19 33 17 31 20 19 21 17 14 15 15 14 17 16 13 10 7 5 8 9 12 16 18 20 22 24 26 28 31 32 33 34
7 11 6 6 12 10 7 21 20 12 12 13 12 19 7 8 13 13 16 16 14 12 8 6 11 6 3 2 2 6 8 12 16 19 19 22 26 29 31 32 32 34 35 36
7 9 4 5 6 8 13 9 25 23 14 24 14 8 14 13 14 9 8 7 10 10 8 6 2 3 6 10 13 14 16 19 19 21 22 25 26 27 30 33 35 36 36 36
9 8 5 7 8 8 13 10 13 14 16 12 20 17 23 20 8 4 4 3 2 3 4 4 6 6 8 11 13 15 16 17 20 23 24 24 25 24 24 26 29 30 30 32
9 4 6 6 8 13 13 5 2 3 9 12 12 16 16 27 10 7 13 7 6 5 6 7 9 9 11 13 14 15 16 16 18 21 24 26 28 31 27 29 32 35 37 37
6 2 10 5 5 14 18 13 11 11 13 16 17 17 21 10 9 29 22 15 12 10 9 10 10 11 11 13 13 15 15 16 16 17 19 21 23 27 30 29 32 34 35 35
12 12 7 4 5 16 16 11 17 8 9 20 19 15 9 10 19 23 19 14 10 9 7 7 6 6 5 6 8 10 10 10 12 13 15 18 20 24 28 31 31 34 37 38
2 12 9 16 14 3 28 9 18 15 12 18 21 18 16 18 18 15 13 12 10 9 6 3 5 5 6 6 7 9 11 12 14 16 17 19 23 27 29 33 35 36 38 41
6 7 6 6 13 13 22 26 25 23 23 23 23 23 22 22 21 19 17 14 12 10 6 3 7 8 6 5 5 7 10 13 15 16 18 21 25 27 29 31 33 35 38 40
7 12 10 11 8 13 28 38 33 30 25 23 21 22 23 24 23 21 20 18 15 11 10 8 11 5 3 8 12 14 16 18 19 21 23 26 27 29 29 30 34 35 33 36
19 15 11 18 7 8 6 22 40 36 31 26 24 27 26 24 23 25 23 20 18 14 10 7 8 5 4 7 9 11 15 18 21 23 26 29 30 31 33 34 31 28 29 31
Wind_Direction_500mb
187 152 202 195 209 100 145 175 183 223 242 170 218 241 248 260 281 284 275 262 258 247 238 232 233 229 228 229 231 232 235 238 239 238 241 242 245 251 258 259 257 259 264 261
137 232 208 225 215 227 223 224 261 288 300 181 256 261 257 232 243 255 265 265 258 257 248 240 244 242 230 231 233 233 235 241 242 244 247 251 259 262 268 264 261 259 261 267
220 187 197 187 187 203 238 207 205 233 8 330 332 283 253 242 236 247 252 254 254 251 248 241 233 237 238 232 232 232 237 241 243 247 248 249 252 257 258 255 257 255 257 259
227 233 155 175 213 163 231 191 197 209 126 234 109 280 274 247 242 221 253 253 250 248 247 246 240 236 240 234 228 233 237 242 247 248 245 250 253 257 260 265 263 258 258 262
212 190 218 227 213 171 220 175 178 167 177 218 222 298 271 273 266 264 258 256 257 257 253 249 240 233 231 225 224 230 239 246 250 251 249 255 252 258 265 268 264 262 263 262
212 186 181 209 191 189 188 101 48 53 100 275 202 185 245 213 216 239 261 269 288 282 252 249 243 238 238 240 242 243 244 244 243 244 249 251 255 263 265 266 263 262 262 262
171 234 265 204 154 178 175 134 27 6 352 231 197 204 255 271 269 235 252 276 291 267 238 239 235 227 230 237 245 247 241 243 244 241 244 248 253 255 259 263 267 270 268 266
193 194 213 197 194 183 196 173 159 189 204 240 159 233 256 243 275 266 264 267 266 259 224 227 227 220 223 225 224 222 233 237 234 237 242 248 252 252 252 255 258 260 261 263
180 247 152 207 169 158 180 209 157 114 49 73 218 286 301 256 270 278 333 250 243 249 230 228 229 217 219 222 229 235 239 245 249 250 249 249 252 255 256 256 258 262 264 266
195 214 198 199 149 216 194 147 181 100 166 264 275 267 238 352 297 38 3 319 293 258 231 220 205 204 216 223 228 232 248 259 264 257 254 254 254 256 259 259 259 259 261 263
252 117 244 128 205 197 161 175 217 170 170 190 225 256 225 240 69 24 10 2 346 283 255 247 211 204 205 208 222 235 244 251 253 257 259 260 261 261 258 258 256 256 255 253
191 187 227 219 257 242 219 190 186 197 239 231 151 265 351 98 77 71 28 13 13 353 306 241 232 217 205 224 238 247 261 272 273 273 273 269 264 260 258 253 251 251 252 252
182 202 219 200 270 267 211 208 226 268 68 210 154 257 218 57 35 9 6 359 13 16 9 347 161 146 148 174 257 278 275 278 278 279 275 269 264 260 258 258 257 255 254 255
358 151 167 213 118 323 197 216 120 189 239 248 233 245 328 341 351 335 352 11 36 34 34 54 80 99 127 190 211 232 260 271 272 270 265 260 259 261 263 264 265 265 266 268
139 200 101 130 108 101 110 44 27 188 148 238 284 284 281 287 292 295 329 31 42 44 52 97 119 137 147 153 161 192 247 265 269 269 271 277 279 280 279 278 279 281 281 282
269 159 99 147 134 109 183 279 265 222 229 249 251 269 227 250 271 56 10 21 41 45 75 130 139 147 160 165 180 226 248 270 289 290 286 288 288 289 290 291 292 291 289 290
208 137 114 201 185 186 221 218 205 211 206 190 208 240 96 36 50 22 4 14 32 24 21 79 159 184 179 180 240 249 288 295 297 297 295 293 298 302 304 302 298 297 298 298
176 132 123 169 152 209 237 239 215 209 239 211 265 66 92 121 116 91 42 37 29 33 37 56 134 242 293 307 307 303 300 304 306 304 305 302 298 298 301 304 305 306 305 301
191 129 175 162 194 292 300 224 183 180 257 204 235 131 124 138 131 342 25 2 25 16 1 331 305 293 287 292 298 302 301 305 309 309 311 314 313 302 303 304 303 302 302 302
182 191 144 124 149 199 233 198 172 106 281 169 161 144 150 155 180 229 210 224 255 269 281 281 288 293 297 298 302 303 309 315 318 320 320 319 321 319 314 312 310 308 305 302
103 56 193 177 207 284 242 159 158 104 239 159 193 187 174 192 182 163 185 207 238 260 266 274 286 296 302 306 304 304 312 316 321 322 326 326 325 324 329 329 323 317 314 309
166 169 196 100 154 262 142 111 178 198 162 177 178 188 182 172 156 166 182 197 215 248 280 304 310 304 319 324 328 332 331 344 341 335 332 329 329 331 332 331 328 324 319 317
264 182 180 182 208 201 181 213 202 200 209 197 199 197 205 203 208 209 211 214 219 225 248 285 302 317 350 350 348 351 347 358 352 342 337 337 339 339 339 335 333 328 325 327
253 176 194 93 237 223 216 226 230 228 225 215 211 204 205 207 203 205 203 207 213 208 208 257 306 303 336 349 352 357 5 360 356 351 349 347 344 346 346 344 340 339 337 337
180 143 188 256 276 286 251 230 226 216 213 208 199 202 202 199 196 198 192 189 190 190 168 179 233 244 312 347 358 1 360 2 0 2 3 3 3 359 0 359 353 353 353 347
186 198 199 251 189 199 216 223 225 220 213 210 204 186 188 196 197 191 187 184 191 190 181 198 242 257 316 345 357 1 3 2 5 6 7 4 359 356 352 348 346 347 343 341
Wind_Speed_850mb
11 6 16 15 17 4 10 7 9 6 8 11 15 20 22 34 36 45 49 44 44 46 59 54 54 67 66 63 60 57 55 55 53 54 52 52 53 53 53 54 52 49 47 49
6 17 9 11 9 12 5 3 7 10 3 8 6 21 19 14 21 49 59 56 56 53 44 47 61 61 77 75 70 65 62 55 56 58 56 57 55 55 55 54 54 53 51 46
14 2 29 19 11 15 12 10 7 6 8 8 9 15 18 15 38 60 72 76 71 70 70 62 62 59 66 84 81 72 65 60 59 61 61 63 64 64 61 60 58 55 53 50
14 26 6 7 9 13 13 16 14 10 5 9 2 11 12 9 14 12 44 59 75 81 81 75 72 62 53 67 81 73 68 61 61 63 66 67 71 72 68 63 59 54 52 52
15 16 27 30 13 15 10 12 14 8 5 2 5 6 14 7 9 20 21 49 54 62 65 75 73 69 57 44 56 60 57 57 58 63 67 66 65 67 67 63 60 56 54 53
14 6 13 11 22 22 8 8 11 8 5 8 15 14 10 10 16 15 22 21 34 34 49 52 55 65 66 58 54 46 49 58 60 57 57 61 63 58 56 54 57 58 57 56
12 19 5 6 13 12 11 18 4 5 4 12 4 10 19 10 15 12 17 25 33 21 16 22 28 37 48 54 54 52 49 44 47 56 60 59 59 59 61 58 58 56 56 57
16 11 28 12 12 14 29 20 11 15 10 8 8 14 11 22 31 32 49 53 39 25 22 21 16 20 27 28 28 32 33 34 41 47 51 53 55 56 55 58 61 61 60 61
12 11 3 7 9 17 12 24 9 6 3 5 9 12 18 11 9 6 9 8 18 18 21 16 13 17 18 20 25 29 32 30 30 34 37 41 42 45 49 52 56 60 62 61
5 3 7 20 8 13 15 18 9 3 4 7 8 8 9 7 12 14 13 19 20 16 21 18 15 14 18 23 24 22 21 22 23 27 30 33 37 41 44 46 47 48 50 50
3 3 1 14 14 31 7 11 8 7 10 9 1 9 14 14 13 15 22 43 33 18 18 15 17 18 14 15 16 17 19 20 21 23 25 27 28 30 32 34 37 39 42 42
15 8 10 13 2 3 33 13 18 11 8 5 3 11 9 19 16 23 32 56 63 22 11 13 19 13 12 11 9 8 9 12 15 20 22 23 24 25 25 28 29 31 33 34
11 6 7 1 15 8 7 8 12 8 2 18 9 10 15 19 19 31 36 51 49 42 21 5 9 9 7 4 3 7 9 11 13 15 17 19 21 22 24 25 26 27 29 31
8 5 10 8 5 4 6 8 4 6 12 27 27 22 7 25 20 30 28 27 28 33 25 22 15 10 5 5 7 7 9 12 14 16 17 19 21 21 23 25 27 28 30 32
8 4 4 7 12 10 4 4 2 6 4 4 8 14 21 19 15 24 25 7 14 18 21 20 15 15 16 13 10 5 7 10 14 17 19 19 20 22 24 26 29 30 31 33
3 4 5 3 9 11 1 11 10 9 9 16 19 33 17 31 20 19 21 17 14 15 15 14 17 16 13 10 7 5 8 9 12 16 18 20 22 24 26 28 31 32 33 34
7 11 6 6 12 10 7 21 20 12 12 13 12 19 7 8 13 13 16 16 14 12 8 6 11 6 3 2 2 6 8 12 16 19 19 22 26 29 31 32 32 34 35 36
7 9 4 5 6 8 13 9 25 23 14 24 14 8 14 13 14 9 8 7 10 10 8 6 2 3 6 10 13 14 16 19 19 21 22 25 26 27 30 33 35 36 36 36
9 8 5 7 8 8 13 10 13 14 16 12 20 17 23 20 8 4 4 3 2 3 4 4 6 6 8 11 13 15 16 17 20 23 24 24 25 24 24 26 29 30 30 32
9 4 6 6 8 13 13 5 2 3 9 12 12 16 16 27 10 7 13 7 6 5 6 7 9 9 11 13 14 15 16 16 18 21 24 26 28 31 27 29 32 35 37 37
6 2 10 5 5 14 18 13 11 11 13 16 17 17 21 10 9 29 22 15 12 10 9 10 10 11 11 13 13 15 15 16 16 17 19 21 23 27 30 29 32 34 35 35
12 12 7 4 5 16 16 11 17 8 9 20 19 15 9 10 19 23 19 14 10 9 7 7 6 6 5 6 8 10 10 10 12 13 15 18 20 24 28 31 31 34 37 38
2 12 9 16 14 3 28 9 18 15 12 18 21 18 16 18 18 15 13 12 10 9 6 3 5 5 6 6 7 9 11 12 14 16 17 19 23 27 29 33 35 36 38 41
6 7 6 6 13 13 22 26 25 23 23 23 23 23 22 22 21 19 17 14 12 10 6 3 7 8 6 5 5 7 10 13 15 16 18 21 25 27 29 31 33 35 38 40
7 12 10 11 8 13 28 38 33 30 25 23 21 22 23 24 23 21 20 18 15 11 10 8 11 5 3 8 12 14 16 18 19 21 23 26 27 29 29 30 34 35 33 36
19 15 11 18 7 8 6 22 40 36 31 26 24 27 26 24 23 25 23 20 18 14 10 7 8 5 4 7 9 11 15 18 21 23 26 29 30 31 33 34 31 28 29 31
Wind_Direction_850mb
187 152 202 195 209 100 145 175 183 223 242 170 218 241 248 260 281 284 275 262 258 247 238 232 233 229 228 229 231 232 235 238 239 238 241 242 245 251 258 259 257 259 264 261
137 232 208 225 215 227 223 224 261 288 300 181 256 261 257 232 243 255 265 265 258 257 248 240 244 242 230 231 233 233 235 241 242 244 247 251 259 262 268 264 261 259 261 267
220 187 197 187 187 203 238 207 205 233 8 330 332 283 253 242 236 247 252 254 254 251 248 241 233 237 238 232 232 232 237 241 243 247 248 249 252 257 258 255 257 255 257 259
227 233 155 175 213 163 231 191 197 209 126 234 109 280 274 247 242 221 253 253 250 248 247 246 240 236 240 234 228 233 237 242 247 248 245 250 253 257 260 265 263 258 258 262
212 190 218 227 213 171 220 175 178 167 177 218 222 298 271 273 266 264 258 256 257 257 253 249 240 233 231 225 224 230 239 246 250 251 249 255 252 258 265 268 264 262 263 262
212 186 181 209 191 189 188 101 48 53 100 275 202 185 245 213 216 239 261 269 288 282 252 249 243 238 238 240 242 243 244 244 243 244 249 251 255 263 265 266 263 262 262 262
171 234 265 204 154 178 175 134 27 6 352 231 197 204 255 271 269 235 252 276 291 267 238 239 235 227 230 237 245 247 241 243 244 241 244 248 253 255 259 263 267 270 268 266
193 194 213 197 194 183 196 173 159 189 204 240 159 233 256 243 275 266 264 267 266 259 224 227 227 220 223 225 224 222 233 237 234 237 242 248 252 252 252 255 258 260 261 263
180 247 152 207 169 158 180 209 157 114 49 73 218 286 301 256 270 278 333 250 243 249 230 228 229 217 219 222 229 235 239 245 249 250 249 249 252 255 256 256 258 262 264 266
195 214 198 199 149 216 194 147 181 100 166 264 275 267 238 352 297 38 3 319 293 258 231 220 205 204 216 223 228 232 248 259 264 257 254 254 254 256 259 259 259 259 261 263
252 117 244 128 205 197 161 175 217 170 170 190 225 256 225 240 69 24 10 2 346 283 255 247 211 204 205 208 222 235 244 251 253 257 259 260 261 261 258 258 256 256 255 253
191 187 227 219 257 242 219 190 186 197 239 231 151 265 351 98 77 71 28 13 13 353 306 241 232 217 205 224 238 247 261 272 273 273 273 269 264 260 258 253 251 251 252 252
182 202 219 200 270 267 211 208 226 268 68 210 154 257 218 57 35 9 6 359 13 16 9 347 161 146 148 174 257 278 275 278 278 279 275 269 264 260 258 258 257 255 254 255
358 151 167 213 118 323 197 216 120 189 239 248 233 245 328 341 351 335 352 11 36 34 34 54 80 99 127 190 211 232 260 271 272 270 265 260 259 261 263 264 265 265 266 268
139 200 101 130 108 101 110 44 27 188 148 238 284 284 281 287 292 295 329 31 42 44 52 97 119 137 147 153 161 192 247 265 269 269 271 277 279 280 279 278 279 281 281 282
269 159 99 147 134 109 183 279 265 222 229 249 251 269 227 250 271 56 10 21 41 45 75 130 139 147 160 165 180 226 248 270 289 290 286 288 288 289 290 291 292 291 289 290
208 137 114 201 185 186 221 218 205 211 206 190 208 240 96 36 50 22 4 14 32 24 21 79 159 184 179 180 240 249 288 295 297 297 295 293 298 302 304 302 298 297 298 298
176 132 123 169 152 209 237 239 215 209 239 211 265 66 92 121 116 91 42 37 29 33 37 56 134 242 293 307 307 303 300 304 306 304 305 302 298 298 301 304 305 306 305 301
191 129 175 162 194 292 300 224 183 180 257 204 235 131 124 138 131 342 25 2 25 16 1 331 305 293 287 292 298 302 301 305 309 309 311 314 313 302 303 304 303 302 302 302
182 191 144 124 149 199 233 198 172 106 281 169 161 144 150 155 180 229 210 224 255 269 281 281 288 293 297 298 302 303 309 315 318 320 320 319 321 319 314 312 310 308 305 302
103 56 193 177 207 284 242 159 158 104 239 159 193 187 174 192 182 163 185 207 238 260 266 274 286 296 302 306 304 304 312 316 321 322 326 326 325 324 329 329 323 317 314 309
166 169 196 100 154 262 142 111 178 198 162 177 178 188 182 172 156 166 182 197 215 248 280 304 310 304 319 324 328 332 331 344 341 335 332 329 329 331 332 331 328 324 319 317
264 182 180 182 208 201 181 213 202 200 209 197 199 197 205 203 208 209 211 214 219 225 248 285 302 317 350 350 348 351 347 358 352 342 337 337 339 339 339 335 333 328 325 327
253 176 194 93 237 223 216 226 230 228 225 215 211 204 205 207 203 205 203 207 213 208 208 257 306 303 336 349 352 357 5 360 356 351 349 347 344 346 346 344 340 339 337 337
180 143 188 256 276 286 251 230 226 216 213 208 199 202 202 199 196 198 192 189 190 190 168 179 233 244 312 347 358 1 360 2 0 2 3 3 3 359 0 359 353 353 353 347
186 198 199 251 189 199 216 223 225 220 213 210 204 186 188 196 197 191 187 184 191 190 181 198 242 257 316 345 357 1 3 2 5 6 7 4 359 356 352 348 346 347 343 341